TimeEST,TemperatureF,Dew PointF,Humidity,Sea Level PressureIn,VisibilityMPH,Wind Direction,Wind SpeedMPH,Gust SpeedMPH,PrecipitationIn,Events,Conditions,WindDirDegrees,DateUTC
1:53 AM,26.1,21.9,84,30.14,10.0,Calm,Calm,-,N/A,,Clear,0,2012-12-20 06:53:00
2:53 AM,26.1,21.0,81,30.15,10.0,Calm,Calm,-,N/A,,Clear,0,2012-12-20 07:53:00
3:53 AM,24.1,21.0,88,30.14,10.0,Calm,Calm,-,N/A,,Clear,0,2012-12-20 08:53:00
4:53 AM,23.0,19.0,85,30.15,10.0,Calm,Calm,-,N/A,,Clear,0,2012-12-20 09:53:00
5:53 AM,23.0,19.9,88,30.18,10.0,Calm,Calm,-,N/A,,Clear,0,2012-12-20 10:53:00
6:53 AM,23.0,19.0,85,30.20,10.0,Calm,Calm,-,N/A,,Clear,0,2012-12-20 11:53:00
7:53 AM,24.1,19.0,81,30.20,10.0,NNE,4.6,-,N/A,,Clear,30,2012-12-20 12:53:00
8:53 AM,28.9,24.1,82,30.21,10.0,Calm,Calm,-,N/A,,Clear,0,2012-12-20 13:53:00
9:53 AM,37.0,25.0,62,30.19,10.0,North,5.8,-,N/A,,Clear,360,2012-12-20 14:53:00
10:53 AM,39.0,24.1,55,30.19,10.0,NW,3.5,-,N/A,,Clear,310,2012-12-20 15:53:00
11:53 AM,41.0,24.1,51,30.15,10.0,Calm,Calm,-,N/A,,Clear,0,2012-12-20 16:53:00
12:53 PM,42.1,25.0,51,30.10,10.0,NE,3.5,-,N/A,,Clear,40,2012-12-20 17:53:00
1:53 PM,42.1,25.0,51,30.08,10.0,Calm,Calm,-,N/A,,Clear,0,2012-12-20 18:53:00
2:53 PM,41.0,26.1,55,30.08,10.0,Calm,Calm,-,N/A,,Clear,0,2012-12-20 19:53:00
3:53 PM,41.0,25.0,53,30.08,10.0,Calm,Calm,-,N/A,,Clear,0,2012-12-20 20:53:00
4:53 PM,41.0,26.1,55,30.05,10.0,SSE,6.9,-,N/A,,Clear,150,2012-12-20 21:53:00
5:53 PM,39.9,27.0,60,30.04,10.0,SSE,6.9,-,N/A,,Partly Cloudy,150,2012-12-20 22:53:00
6:16 PM,39.2,28.4,65,30.05,10.0,South,3.5,-,N/A,,Mostly Cloudy,190,2012-12-20 23:16:00
6:53 PM,39.9,28.9,65,30.05,10.0,Variable,3.5,-,N/A,,Overcast,0,2012-12-20 23:53:00
7:53 PM,39.9,30.0,68,30.03,10.0,SE,5.8,-,N/A,,Overcast,130,2012-12-21 00:53:00
8:12 PM,39.2,30.2,70,29.98,10.0,East,6.9,-,N/A,,Overcast,90,2012-12-21 01:12:00
8:53 PM,39.9,32.0,73,29.97,10.0,SSE,4.6,-,0.00,Rain,Light Rain,160,2012-12-21 01:53:00
9:04 PM,39.2,33.8,81,29.99,10.0,SW,6.9,-,0.00,Rain,Light Rain,230,2012-12-21 02:04:00
9:53 PM,39.0,35.1,86,29.94,9.0,East,6.9,-,0.04,Rain,Light Rain,100,2012-12-21 02:53:00
10:08 PM,39.2,35.6,87,29.93,10.0,East,6.9,-,0.01,Rain,Light Rain,90,2012-12-21 03:08:00
10:18 PM,39.2,35.6,87,29.93,10.0,ESE,5.8,-,0.01,,Overcast,110,2012-12-21 03:18:00
10:53 PM,39.9,35.1,83,29.90,10.0,NE,4.6,-,0.01,,Overcast,50,2012-12-21 03:53:00
11:07 PM,39.2,35.6,87,29.89,10.0,Variable,3.5,-,N/A,,Overcast,0,2012-12-21 04:07:00
11:20 PM,41.0,35.6,81,29.87,10.0,ESE,10.4,19.6,0.00,Rain,Light Rain,120,2012-12-21 04:20:00
11:53 PM,42.1,37.0,82,29.82,10.0,ESE,11.5,20.7,0.00,Rain,Light Rain,110,2012-12-21 04:53:00